• în Republica Moldova
  • Lista ţărilor
  • Pe 7 zile
  • Temperatura apei
  • Hartă satelitară
  • Meteo pe hartă
  • Widget-uri
  • user-avatar
    Intrare

    Meteo pe oră la Luni

    Astăzi, 19 Iulie, Joi

    Timp Temperatura Precipitaţii Vânt Presiune Umiditate
    00:00 +18°C° 0,1 mm 3 m/s 733 mmHg 95%
    01:00 +19°C° 0,1 mm 3 m/s 733 mmHg 96%
    02:00 +19°C° 0,1 mm 3 m/s 733 mmHg 96%
    03:00 +19°C° 0,2 mm 3 m/s 733 mmHg 96%
    04:00 +19°C° 0,2 mm 3 m/s 733 mmHg 96%
    05:00 +18°C° 0,2 mm 3 m/s 733 mmHg 97%
    06:00 +19°C° 0,1 mm 3 m/s 733 mmHg 96%
    07:00 +19°C° 0,1 mm 4 m/s 733 mmHg 95%
    08:00 +19°C° 0,1 mm 4 m/s 733 mmHg 94%
    09:00 +19°C° 0,1 mm 4 m/s 733 mmHg 92%
    10:00 +20°C° 0,1 mm 3 m/s 733 mmHg 90%
    11:00 +20°C° 0,1 mm 3 m/s 733 mmHg 88%
    12:00 +21°C° 0,3 mm 4 m/s 733 mmHg 85%
    13:00 +22°C° 0,3 mm 4 m/s 733 mmHg 82%
    14:00 +23°C° 0,3 mm 4 m/s 733 mmHg 79%
    15:00 +23°C° 0,6 mm 4 m/s 733 mmHg 83%
    16:00 +22°C° 0,6 mm 3 m/s 733 mmHg 87%
    17:00 +22°C° 0,6 mm 3 m/s 733 mmHg 90%
    18:00 +21°C° 0,2 mm 3 m/s 733 mmHg 92%
    19:00 +20°C° 0,2 mm 3 m/s 733 mmHg 94%
    20:00 +20°C° 0,2 mm 3 m/s 733 mmHg 95%
    21:00 +19°C° 0,7 mm 3 m/s 732 mmHg 96%
    22:00 +19°C° 0,7 mm 3 m/s 732 mmHg 97%
    23:00 +19°C° 0,7 mm 3 m/s 732 mmHg 98%

    Mâine, 20 Iulie, Vineri

    Timp Temperatura Precipitaţii Vânt Presiune Umiditate
    00:00 +19°C° 0,3 mm 3 m/s 732 mmHg 98%
    01:00 +19°C° 0,3 mm 3 m/s 732 mmHg 98%
    02:00 +19°C° 0,3 mm 3 m/s 732 mmHg 98%
    03:00 +19°C° 0,2 mm 3 m/s 732 mmHg 98%
    04:00 +19°C° 0,2 mm 3 m/s 732 mmHg 98%
    05:00 +19°C° 0,2 mm 3 m/s 732 mmHg 98%
    06:00 +19°C° 0,1 mm 3 m/s 732 mmHg 97%
    07:00 +19°C° 0,1 mm 3 m/s 732 mmHg 96%
    08:00 +19°C° 0,1 mm 3 m/s 732 mmHg 96%
    09:00 +19°C° 0,1 mm 3 m/s 732 mmHg 95%
    10:00 +20°C° 0,1 mm 3 m/s 732 mmHg 94%
    11:00 +20°C° 0,1 mm 3 m/s 732 mmHg 94%
    12:00 +20°C° 0,1 mm 3 m/s 732 mmHg 92%
    13:00 +21°C° 0,1 mm 3 m/s 732 mmHg 91%
    14:00 +21°C° 0,1 mm 3 m/s 732 mmHg 89%
    15:00 +21°C° 0,1 mm 3 m/s 732 mmHg 88%
    16:00 +21°C° 0,1 mm 3 m/s 732 mmHg 87%
    17:00 +22°C° 0,1 mm 3 m/s 732 mmHg 86%
    18:00 +21°C° 0 mm 2 m/s 731 mmHg 90%
    19:00 +20°C° 0 mm 2 m/s 731 mmHg 93%
    20:00 +19°C° 0 mm 2 m/s 731 mmHg 96%
    21:00 +20°C° 0 mm 1 m/s 731 mmHg 97%
    22:00 +19°C° 0 mm 1 m/s 731 mmHg 98%
    23:00 +18°C° 0 mm 1 m/s 731 mmHg 99%

    Poimâine, 21 Iulie, Sâmbătă

    Timp Temperatura Precipitaţii Vânt Presiune Umiditate
    00:00 +19°C° 0 mm 1 m/s 731 mmHg 99%
    01:00 +19°C° 0 mm 1 m/s 731 mmHg 99%
    02:00 +19°C° 0 mm 1 m/s 731 mmHg 99%
    03:00 +19°C° 0 mm 1 m/s 732 mmHg 98%
    04:00 +19°C° 0 mm 1 m/s 732 mmHg 98%
    05:00 +18°C° 0 mm 0 m/s 732 mmHg 97%
    06:00 +18°C° 0 mm 0 m/s 732 mmHg 96%
    07:00 +19°C° 0 mm 0 m/s 732 mmHg 94%
    08:00 +22°C° 0 mm 1 m/s 732 mmHg 92%
    09:00 +22°C° 0 mm 1 m/s 732 mmHg 87%
    10:00 +23°C° 0 mm 1 m/s 733 mmHg 82%
    11:00 +24°C° 0 mm 1 m/s 733 mmHg 78%
    12:00 +25°C° 0 mm 1 m/s 733 mmHg 76%
    13:00 +25°C° 0 mm 1 m/s 732 mmHg 75%
    14:00 +26°C° 0 mm 1 m/s 732 mmHg 74%
    15:00 +26°C° 0 mm 1 m/s 732 mmHg 75%
    16:00 +26°C° 0 mm 1 m/s 732 mmHg 76%
    17:00 +26°C° 0 mm 1 m/s 732 mmHg 77%
    18:00 +25°C° 0,1 mm 1 m/s 732 mmHg 82%
    19:00 +23°C° 0,1 mm 1 m/s 732 mmHg 88%
    20:00 +22°C° 0,1 mm 1 m/s 732 mmHg 94%
    21:00 +22°C° 0,9 mm 1 m/s 732 mmHg 95%
    22:00 +21°C° 0,9 mm 1 m/s 732 mmHg 96%
    23:00 +21°C° 0,9 mm 1 m/s 732 mmHg 97%

    22 Iulie, Duminică

    Timp Temperatura Precipitaţii Vânt Presiune Umiditate
    00:00 +20°C° 0 mm 1 m/s 732 mmHg 97%
    01:00 +20°C° 0 mm 1 m/s 732 mmHg 97%
    02:00 +20°C° 0 mm 1 m/s 732 mmHg 97%
    03:00 +20°C° 0 mm 1 m/s 732 mmHg 98%
    04:00 +20°C° 0 mm 1 m/s 732 mmHg 98%
    05:00 +20°C° 0 mm 1 m/s 732 mmHg 98%
    06:00 +22°C° 0,1 mm 1 m/s 732 mmHg 95%
    07:00 +23°C° 0,1 mm 1 m/s 732 mmHg 91%
    08:00 +24°C° 0,1 mm 1 m/s 732 mmHg 88%
    09:00 +26°C° 0,3 mm 2 m/s 732 mmHg 81%
    10:00 +27°C° 0,3 mm 2 m/s 732 mmHg 74%
    11:00 +28°C° 0,3 mm 2 m/s 732 mmHg 66%
    12:00 +28°C° 1,1 mm 2 m/s 732 mmHg 70%
    13:00 +28°C° 1,1 mm 2 m/s 731 mmHg 73%
    14:00 +28°C° 1,1 mm 2 m/s 731 mmHg 76%
    15:00 +28°C° 1,7 mm 2 m/s 731 mmHg 79%
    16:00 +27°C° 1,7 mm 1 m/s 731 mmHg 82%
    17:00 +26°C° 1,7 mm 1 m/s 731 mmHg 84%
    18:00 +25°C° 1 mm 1 m/s 731 mmHg 87%
    19:00 +24°C° 1 mm 1 m/s 731 mmHg 90%
    20:00 +23°C° 1 mm 1 m/s 731 mmHg 93%
    21:00 +22°C° 0,4 mm 1 m/s 731 mmHg 94%
    22:00 +22°C° 0,4 mm 1 m/s 731 mmHg 95%
    23:00 +21°C° 0,4 mm 1 m/s 731 mmHg 95%

    23 Iulie, Luni

    Timp Temperatura Precipitaţii Vânt Presiune Umiditate
    00:00 +21°C° 0,2 mm 1 m/s 731 mmHg 96%
    01:00 +20°C° 0,2 mm 1 m/s 731 mmHg 96%
    02:00 +20°C° 0,2 mm 1 m/s 731 mmHg 97%
    03:00 +20°C° 0,1 mm 1 m/s 731 mmHg 97%
    04:00 +20°C° 0,1 mm 1 m/s 731 mmHg 97%
    05:00 +21°C° 0,1 mm 1 m/s 731 mmHg 97%
    06:00 +21°C° 0,3 mm 1 m/s 731 mmHg 96%
    07:00 +22°C° 0,3 mm 1 m/s 731 mmHg 94%
    08:00 +23°C° 0,3 mm 1 m/s 732 mmHg 92%
    09:00 +24°C° 1,1 mm 2 m/s 732 mmHg 91%
    10:00 +24°C° 1,1 mm 2 m/s 732 mmHg 89%
    11:00 +25°C° 1,1 mm 2 m/s 732 mmHg 88%
    12:00 +25°C° 0,8 mm 2 m/s 732 mmHg 87%
    13:00 +25°C° 0,8 mm 2 m/s 732 mmHg 87%
    14:00 +25°C° 0,8 mm 2 m/s 732 mmHg 87%
    15:00 +25°C° 1 mm 2 m/s 732 mmHg 88%
    16:00 +25°C° 1 mm 2 m/s 732 mmHg 90%
    17:00 +24°C° 1 mm 1 m/s 732 mmHg 91%
    18:00 +23°C° 0,8 mm 1 m/s 732 mmHg 92%
    19:00 +22°C° 0,8 mm 1 m/s 732 mmHg 93%
    20:00 +21°C° 0,8 mm 1 m/s 732 mmHg 94%
    21:00 +21°C° 0,1 mm 1 m/s 732 mmHg 95%
    22:00 +19°C° 0,1 mm 2 m/s 732 mmHg 96%
    23:00 +19°C° 0,1 mm 2 m/s 732 mmHg 97%

    24 Iulie, Marţi

    Timp Temperatura Precipitaţii Vânt Presiune Umiditate
    00:00 +19°C° 0 mm 2 m/s 732 mmHg 97%
    01:00 +18°C° 0 mm 2 m/s 732 mmHg 98%
    02:00 +18°C° 0 mm 2 m/s 732 mmHg 98%
    03:00 +18°C° 0 mm 2 m/s 733 mmHg 98%
    04:00 +18°C° 0 mm 2 m/s 733 mmHg 98%
    05:00 +18°C° 0 mm 3 m/s 733 mmHg 98%
    06:00 +19°C° 0 mm 3 m/s 733 mmHg 97%
    07:00 +19°C° 0 mm 3 m/s 733 mmHg 95%
    08:00 +19°C° 0 mm 3 m/s 734 mmHg 94%
    09:00 +21°C° 0 mm 3 m/s 734 mmHg 86%
    10:00 +22°C° 0 mm 3 m/s 734 mmHg 78%
    11:00 +24°C° 0 mm 3 m/s 734 mmHg 71%
    12:00 +25°C° 0 mm 3 m/s 735 mmHg 64%
    13:00 +26°C° 0 mm 3 m/s 735 mmHg 58%
    14:00 +28°C° 0 mm 4 m/s 735 mmHg 52%
    15:00 +27°C° 0 mm 3 m/s 735 mmHg 54%
    16:00 +27°C° 0 mm 3 m/s 735 mmHg 56%
    17:00 +27°C° 0 mm 3 m/s 736 mmHg 58%
    18:00 +25°C° 0 mm 2 m/s 736 mmHg 65%
    19:00 +23°C° 0 mm 2 m/s 736 mmHg 73%
    20:00 +20°C° 0 mm 2 m/s 737 mmHg 80%
    21:00 +19°C° 0 mm 2 m/s 737 mmHg 83%
    22:00 +18°C° 0 mm 2 m/s 737 mmHg 86%
    23:00 +17°C° 0 mm 2 m/s 737 mmHg 89%
    Arată mai mult